When you browse on this site, cookies collect data to enhance your experience and personalize the content and advertising you see.
Visit our Privacy Policy to learn more. By continuing to use the site, you agree to this use of cookies and data.

Meteo orario Tarin Kowt

Oggi, 6 Luglio, Lunedi

Tempo Temperatura Precipitazioni Vento Pressione Umidità
00:00 +23°C° 0 mm 1 m/s 611 mm Hg 14%
01:00 +23°C° 0 mm 1 m/s 611 mm Hg 14%
02:00 +22°C° 0 mm 1 m/s 611 mm Hg 15%
03:00 +22°C° 0 mm 1 m/s 610 mm Hg 15%
04:00 +21°C° 0 mm 1 m/s 610 mm Hg 16%
05:00 +23°C° 0 mm 1 m/s 612 mm Hg 14%
06:00 +25°C° 0 mm 1 m/s 613 mm Hg 12%
07:00 +27°C° 0 mm 1 m/s 614 mm Hg 10%
08:00 +29°C° 0 mm 2 m/s 614 mm Hg 9%
09:00 +30°C° 0 mm 2 m/s 614 mm Hg 8%
10:00 +33°C° 0 mm 3 m/s 615 mm Hg 7%
11:00 +34°C° 0 mm 3 m/s 614 mm Hg 7%
12:00 +35°C° 0 mm 3 m/s 614 mm Hg 7%
13:00 +35°C° 0 mm 3 m/s 614 mm Hg 8%
14:00 +36°C° 0 mm 3 m/s 614 mm Hg 7%
15:00 +36°C° 0 mm 3 m/s 614 mm Hg 7%
16:00 +36°C° 0 mm 3 m/s 613 mm Hg 6%
17:00 +34°C° 0 mm 3 m/s 613 mm Hg 7%
18:00 +31°C° 0 mm 3 m/s 612 mm Hg 7%
19:00 +28°C° 0 mm 3 m/s 611 mm Hg 7%
20:00 +27°C° 0 mm 2 m/s 612 mm Hg 8%
21:00 +26°C° 0 mm 2 m/s 612 mm Hg 8%
22:00 +24°C° 0 mm 1 m/s 612 mm Hg 9%
23:00 +24°C° 0 mm 1 m/s 612 mm Hg 10%

Domani, 7 Luglio, Martedi

Tempo Temperatura Precipitazioni Vento Pressione Umidità
00:00 +23°C° 0 mm 1 m/s 612 mm Hg 11%
01:00 +23°C° 0 mm 2 m/s 612 mm Hg 12%
02:00 +21°C° 0 mm 2 m/s 612 mm Hg 19%
03:00 +20°C° 0 mm 2 m/s 612 mm Hg 25%
04:00 +20°C° 0 mm 1 m/s 612 mm Hg 32%
05:00 +23°C° 0 mm 1 m/s 613 mm Hg 30%
06:00 +25°C° 0 mm 1 m/s 614 mm Hg 27%
07:00 +28°C° 0 mm 1 m/s 615 mm Hg 25%
08:00 +29°C° 0 mm 2 m/s 616 mm Hg 20%
09:00 +31°C° 0 mm 2 m/s 616 mm Hg 16%
10:00 +34°C° 0 mm 3 m/s 617 mm Hg 12%
11:00 +35°C° 0 mm 3 m/s 617 mm Hg 10%
12:00 +36°C° 0 mm 3 m/s 617 mm Hg 9%
13:00 +37°C° 0 mm 3 m/s 617 mm Hg 8%
14:00 +37°C° 0 mm 3 m/s 616 mm Hg 8%
15:00 +37°C° 0 mm 3 m/s 616 mm Hg 8%
16:00 +37°C° 0 mm 3 m/s 615 mm Hg 8%
17:00 +35°C° 0 mm 3 m/s 615 mm Hg 9%
18:00 +33°C° 0 mm 3 m/s 615 mm Hg 10%
19:00 +30°C° 0 mm 4 m/s 614 mm Hg 12%
20:00 +29°C° 0 mm 3 m/s 614 mm Hg 13%
21:00 +28°C° 0 mm 2 m/s 614 mm Hg 14%
22:00 +26°C° 0 mm 1 m/s 614 mm Hg 15%
23:00 +25°C° 0 mm 1 m/s 614 mm Hg 15%

Dopodomani, 8 Luglio, Mercoledi

Tempo Temperatura Precipitazioni Vento Pressione Umidità
00:00 +24°C° 0 mm 1 m/s 613 mm Hg 16%
01:00 +24°C° 0 mm 1 m/s 613 mm Hg 17%
02:00 +23°C° 0 mm 1 m/s 613 mm Hg 17%
03:00 +23°C° 0 mm 1 m/s 613 mm Hg 18%
04:00 +22°C° 0 mm 1 m/s 613 mm Hg 18%
05:00 +25°C° 0 mm 1 m/s 614 mm Hg 17%
06:00 +27°C° 0 mm 2 m/s 615 mm Hg 15%
07:00 +30°C° 0 mm 2 m/s 616 mm Hg 14%
08:00 +31°C° 0 mm 3 m/s 617 mm Hg 13%
09:00 +34°C° 0 mm 3 m/s 617 mm Hg 12%
10:00 +35°C° 0 mm 4 m/s 618 mm Hg 11%
11:00 +36°C° 0 mm 5 m/s 617 mm Hg 10%
12:00 +37°C° 0 mm 5 m/s 617 mm Hg 8%
13:00 +39°C° 0 mm 6 m/s 617 mm Hg 7%
14:00 +39°C° 0 mm 6 m/s 617 mm Hg 7%
15:00 +38°C° 0 mm 6 m/s 616 mm Hg 7%
16:00 +38°C° 0 mm 6 m/s 616 mm Hg 7%
17:00 +35°C° 0 mm 6 m/s 616 mm Hg 8%
18:00 +33°C° 0 mm 5 m/s 615 mm Hg 10%
19:00 +32°C° 0 mm 4 m/s 614 mm Hg 11%
20:00 +29°C° 0 mm 4 m/s 614 mm Hg 11%
21:00 +28°C° 0 mm 3 m/s 614 mm Hg 12%
22:00 +26°C° 0 mm 2 m/s 614 mm Hg 13%
23:00 +25°C° 0 mm 2 m/s 613 mm Hg 13%

9 Luglio, Giovedi

Tempo Temperatura Precipitazioni Vento Pressione Umidità
00:00 +24°C° 0 mm 1 m/s 613 mm Hg 14%
01:00 +23°C° 0 mm 1 m/s 612 mm Hg 14%
02:00 +22°C° 0 mm 1 m/s 612 mm Hg 15%
03:00 +22°C° 0 mm 1 m/s 612 mm Hg 16%
04:00 +21°C° 0 mm 1 m/s 611 mm Hg 17%
05:00 +23°C° 0 mm 1 m/s 612 mm Hg 15%
06:00 +26°C° 0 mm 1 m/s 614 mm Hg 13%
07:00 +29°C° 0 mm 1 m/s 615 mm Hg 11%
08:00 +30°C° 0 mm 1 m/s 615 mm Hg 10%
09:00 +31°C° 0 mm 2 m/s 615 mm Hg 9%
10:00 +34°C° 0 mm 2 m/s 615 mm Hg 8%
11:00 +35°C° 0 mm 3 m/s 615 mm Hg 7%
12:00 +36°C° 0 mm 3 m/s 615 mm Hg 6%
13:00 +37°C° 0 mm 4 m/s 615 mm Hg 5%
14:00 +37°C° 0 mm 4 m/s 614 mm Hg 5%
15:00 +37°C° 0 mm 5 m/s 614 mm Hg 5%
16:00 +37°C° 0 mm 5 m/s 613 mm Hg 5%
17:00 +34°C° 0 mm 4 m/s 613 mm Hg 6%
18:00 +31°C° 0 mm 3 m/s 612 mm Hg 8%
19:00 +28°C° 0 mm 2 m/s 611 mm Hg 9%
20:00 +27°C° 0 mm 2 m/s 611 mm Hg 10%
21:00 +25°C° 0 mm 1 m/s 611 mm Hg 11%
22:00 +22°C° 0 mm 0 m/s 611 mm Hg 12%
23:00 +21°C° 0 mm 0 m/s 610 mm Hg 13%

10 Luglio, Venerdi

Tempo Temperatura Precipitazioni Vento Pressione Umidità
00:00 +21°C° 0 mm 0 m/s 610 mm Hg 13%
01:00 +20°C° 0 mm 0 m/s 610 mm Hg 14%
02:00 +22°C° 0 mm 1 m/s 610 mm Hg 15%
03:00 +21°C° 0 mm 1 m/s 610 mm Hg 16%
04:00 +21°C° 0 mm 1 m/s 610 mm Hg 18%
05:00 +23°C° 0 mm 1 m/s 611 mm Hg 16%
06:00 +26°C° 0 mm 2 m/s 612 mm Hg 15%
07:00 +28°C° 0 mm 2 m/s 613 mm Hg 13%
08:00 +30°C° 0 mm 2 m/s 614 mm Hg 12%
09:00 +31°C° 0 mm 2 m/s 614 mm Hg 11%
10:00 +34°C° 0 mm 2 m/s 614 mm Hg 11%
11:00 +35°C° 0 mm 2 m/s 614 mm Hg 10%
12:00 +36°C° 0 mm 2 m/s 614 mm Hg 9%
13:00 +37°C° 0 mm 2 m/s 614 mm Hg 8%
14:00 +38°C° 0 mm 2 m/s 613 mm Hg 8%
15:00 +38°C° 0 mm 2 m/s 613 mm Hg 8%
16:00 +38°C° 0 mm 3 m/s 613 mm Hg 7%
17:00 +36°C° 0 mm 3 m/s 612 mm Hg 8%
18:00 +34°C° 0 mm 3 m/s 611 mm Hg 10%
19:00 +31°C° 0 mm 3 m/s 611 mm Hg 11%
20:00 +29°C° 0 mm 2 m/s 611 mm Hg 12%
21:00 +27°C° 0 mm 2 m/s 611 mm Hg 13%
22:00 +26°C° 0 mm 2 m/s 611 mm Hg 14%
23:00 +25°C° 0 mm 2 m/s 611 mm Hg 15%

11 Luglio, Sabato

Tempo Temperatura Precipitazioni Vento Pressione Umidità
00:00 +24°C° 0 mm 2 m/s 610 mm Hg 16%
01:00 +23°C° 0 mm 2 m/s 610 mm Hg 17%
02:00 +23°C° 0 mm 2 m/s 610 mm Hg 18%
03:00 +21°C° 0 mm 3 m/s 610 mm Hg 19%
04:00 +20°C° 0 mm 3 m/s 610 mm Hg 20%
05:00 +22°C° 0 mm 3 m/s 611 mm Hg 19%
06:00 +23°C° 0 mm 4 m/s 611 mm Hg 18%
07:00 +26°C° 0 mm 4 m/s 612 mm Hg 17%
08:00 +28°C° 0 mm 4 m/s 612 mm Hg 16%
09:00 +30°C° 0 mm 4 m/s 612 mm Hg 14%
10:00 +33°C° 0 mm 4 m/s 613 mm Hg 13%
11:00 +34°C° 0 mm 3 m/s 613 mm Hg 11%
12:00 +36°C° 0 mm 3 m/s 612 mm Hg 10%
13:00 +37°C° 0 mm 3 m/s 612 mm Hg 9%
14:00 +37°C° 0 mm 3 m/s 612 mm Hg 8%
15:00 +38°C° 0 mm 3 m/s 612 mm Hg 7%
16:00 +38°C° 0 mm 3 m/s 612 mm Hg 7%
17:00 +36°C° 0 mm 3 m/s 611 mm Hg 8%
18:00 +32°C° 0 mm 2 m/s 610 mm Hg 10%
19:00 +30°C° 0 mm 2 m/s 610 mm Hg 11%
20:00 +28°C° 0 mm 2 m/s 610 mm Hg 14%
21:00 +26°C° 0 mm 2 m/s 610 mm Hg 17%
22:00 +25°C° 0 mm 2 m/s 610 mm Hg 19%
23:00 +24°C° 0 mm 2 m/s 610 mm Hg 20%
Mostrare altro